Alva, OK

10:07 PM CDT on May 22, 2015 (GMT -0500)
1 block east of NWOSU | | Change Station
CLOSE
Current Station
Personal Weather Station
Location: Alva, OK
Elevation: 1458 ft
Nearby Weather Stations
Active Advisory: Flash Flood Watch Active Notice: Record Report

Elev 1458 ft 36.80 °N, 98.66 °W | Updated 3 seconds ago

Overcast
Overcast
56.3 °F
Feels Like 56.3 °F
N
0.0
Wind Variable Wind from North
Gusts 0.0 mph

Today
High -- | Low -- °F
--% Chance of Precip.
Yesterday
High -- | Low -- °F
Precip. -- in
6:22 AM 8:40 PM
Waxing Crescent, 26% visible
Pressure 30.12 in
Visibility 5.0 miles
Clouds Overcast 300 ft
Dew Point 56 °F
Humidity 99%
Rainfall 0.65 in
Snow Depth Not available.
UV 0 out of 12
Pollen 5.70 out of 12
Air Quality Not available.
Flu Activity Sporadic
METAR KEND 230258Z AUTO 13010KT 5SM R35C/4500FT BR OVC003 13/12 A3012 RMK AO2 OVC V BKN SLP200 T01290124 51004 $

More Conditions Fewer Conditions

Pressure 30.12 in
Visibility 5.0 miles
Clouds Overcast 300 ft
Dew Point 56 °F
Humidity 99%
Rainfall 0.65 in
Snow Depth Not available.
UV 0 out of 12
Pollen 5.70 out of 12
Air Quality Not available.
Flu Activity Sporadic
METAR KEND 230258Z AUTO 13010KT 5SM R35C/4500FT BR OVC003 13/12 A3012 RMK AO2 OVC V BKN SLP200 T01290124 51004 $

More Conditions Fewer Conditions

10-Day Weather Forecast

Almanac

Astronomy

May. 22, 2015 Rise Set
Actual Time
Civil Twilight
Nautical Twilight
Astronomical Twilight
Moon
Length of Visible Light
Length of Day
Tomorrow will be .
, % of the Moon is Illuminated

Today's Extremes

State Highs State Lows

Community

WunderPhotos

Upload Photos

1,823,374 photos uploaded!

WunderBlogs® & News

Nearby

Air Quality

  Air Quality AQ Index Pollutant
Not available.

Snow Depth

Station Depth Elevation

Earthquake Activity

City Distance Mag. Time & Date
Minimum magnitude displayed is 2.5.

Coastal Water Temperatures

Place Temperature

Stations

Nearby Weather Stations

Station Location Temp. Windchill Dew Point Humidity Wind Precip. Elev Updated Type
                   
Flash Flood Watch
Statement as of 5:24 PM CDT on May 22, 2015

... Flash Flood Watch remains in effect through Monday morning...

The Flash Flood Watch continues for

* all of western... central... and southern Oklahoma... and western
North Texas.

* Through Monday morning

* 2 to 5 inches of rainfall... with locally higher amounts will be
possible.

Precautionary/preparedness actions...

Monitor weather forecasts and information. Avoid travel in
flooded areas... and make plans to get to higher ground if
flooding develops or worsens in your area.



Austin